Location: Earls Croome
(52.0667°N, 2.2000°W)
Time: 01:53:47
(UTC+00:00)

ASTEX 1 - Pass Details

Date: 17 November 2019
Orbit: 721 x 743 km, 92.7° (Epoch: 09 December)

Event Time Altitude Azimuth Distance (km) Brightness Sun altitude
Rises 04:52:30 0° 180° (S) 3,153 6.7 -24.1°
Reaches altitude 10° 04:54:48 10° 183° (S) 2,239 5.9 -23.8°
Maximum altitude 04:59:44 68° 266° (W) 800 3.3 -23.0°
Drops below altitude 10° 05:04:45 10° 350° (N) 2,266 5.8 -22.3°
Sets 05:07:05 0° 353° (N) 3,196 6.6 -21.9°
